DKH1307 ZSPD-VHHH

Flight info

Callsign DKH1307
Flight time 2h 14m
Altitude 38100
Route HSN81D HSN W13 BEGMO M503 TOLAK/N0459F381 M503 LELIM/N0459F300 V591 ABBEY
Aircraft A20N/M-SDE2E3FGHIRWXY/LB1

Departure

Time 2026-05-06 22:23
Airport Shanghai Pudong International Airport (ZSPD)

Arrival

Time 2026-05-07 00:37
Airport Hong Kong International Airport (VHHH)
Time Latitude Longitude Altitude Speed Heading
2026-05-06 21:57 31.14547 121.79891 32 ft 0 kts 71°
2026-05-06 22:14 31.14546 121.79887 32 ft 2 kts 72°
2026-05-06 22:14 31.14541 121.79871 32 ft 2 kts 72°
2026-05-06 22:15 31.14537 121.79854 32 ft 2 kts 72°
2026-05-06 22:15 31.14532 121.79837 32 ft 2 kts 72°
2026-05-06 22:15 31.14527 121.79821 32 ft 2 kts 72°
2026-05-06 22:15 31.14524 121.79810 31 ft 2 kts 71°
2026-05-06 22:16 31.14516 121.79796 31 ft 2 kts 41°
2026-05-06 22:16 31.14504 121.79787 31 ft 2 kts 19°
2026-05-06 22:16 31.14489 121.79783 30 ft 2 kts 358°
2026-05-06 22:16 31.14479 121.79784 30 ft 0 kts 343°
2026-05-06 22:17 31.14472 121.79787 30 ft 0 kts 340°
2026-05-06 22:18 31.14473 121.79787 30 ft 0 kts 340°
2026-05-06 22:18 31.14502 121.79776 30 ft 9 kts 343°
2026-05-06 22:19 31.14585 121.79733 31 ft 14 kts 306°
2026-05-06 22:19 31.14574 121.79613 29 ft 18 kts 252°
2026-05-06 22:19 31.14538 121.79452 25 ft 17 kts 276°
2026-05-06 22:19 31.14627 121.79383 25 ft 17 kts 342°
2026-05-06 22:20 31.14767 121.79331 25 ft 25 kts 342°
2026-05-06 22:20 31.14955 121.79260 22 ft 30 kts 341°
2026-05-06 22:20 31.15157 121.79183 21 ft 29 kts 342°
2026-05-06 22:20 31.15355 121.79108 19 ft 30 kts 342°
2026-05-06 22:21 31.15564 121.79030 20 ft 31 kts 342°
2026-05-06 22:21 31.15773 121.78951 22 ft 30 kts 342°
2026-05-06 22:21 31.15972 121.78875 22 ft 28 kts 342°
2026-05-06 22:21 31.16130 121.78814 22 ft 13 kts 324°
2026-05-06 22:22 31.16150 121.78738 22 ft 2 kts 251°
2026-05-06 22:22 31.16138 121.78697 21 ft 12 kts 251°
2026-05-06 22:22 31.16067 121.78619 22 ft 15 kts 172°
2026-05-06 22:22 31.16035 121.78630 22 ft 3 kts 161°
2026-05-06 22:23 31.15771 121.78732 22 ft 77 kts 162°
2026-05-06 22:23 31.15054 121.79002 24 ft 138 kts 161°
2026-05-06 22:23 31.14021 121.79394 334 ft 159 kts 162°
2026-05-06 22:23 31.12963 121.79790 941 ft 162 kts 163°
2026-05-06 22:24 31.11904 121.80189 1625 ft 161 kts 163°
2026-05-06 22:24 31.10822 121.80597 2115 ft 171 kts 163°
2026-05-06 22:24 31.09631 121.81043 2498 ft 188 kts 164°
2026-05-06 22:24 31.08304 121.81541 2872 ft 208 kts 163°
2026-05-06 22:25 31.06875 121.82079 3296 ft 225 kts 163°
2026-05-06 22:25 31.05328 121.82664 3686 ft 246 kts 163°
2026-05-06 22:25 31.03621 121.83309 4183 ft 265 kts 163°
2026-05-06 22:25 31.01843 121.83982 4849 ft 276 kts 163°
2026-05-06 22:26 31.00027 121.84671 5688 ft 279 kts 163°
2026-05-06 22:26 30.98165 121.85375 6531 ft 282 kts 163°
2026-05-06 22:26 30.96309 121.86101 7343 ft 287 kts 159°
2026-05-06 22:26 30.94673 121.87470 8089 ft 294 kts 129°
2026-05-06 22:27 30.93791 121.89587 8589 ft 298 kts 101°
2026-05-06 22:27 30.93819 121.92004 8822 ft 300 kts 78°
2026-05-06 22:27 30.94299 121.94358 8828 ft 301 kts 76°
2026-05-06 22:27 30.94808 121.96738 9006 ft 307 kts 76°
2026-05-06 22:28 30.95297 121.99171 9777 ft 309 kts 77°
2026-05-06 22:28 30.95776 122.01592 10559 ft 310 kts 77°
2026-05-06 22:28 30.96265 122.04030 11208 ft 314 kts 77°
2026-05-06 22:28 30.96763 122.06529 11854 ft 319 kts 77°
2026-05-06 22:29 30.97232 122.09042 12490 ft 323 kts 79°
2026-05-06 22:29 30.97680 122.11623 13086 ft 328 kts 79°
2026-05-06 22:29 30.98127 122.14236 13665 ft 333 kts 79°
2026-05-06 22:29 30.98583 122.16889 14251 ft 337 kts 79°
2026-05-06 22:30 30.99042 122.19573 14749 ft 342 kts 81°
2026-05-06 22:30 30.99058 122.22303 14986 ft 340 kts 106°
2026-05-06 22:30 30.98061 122.24757 15023 ft 332 kts 133°
2026-05-06 22:30 30.96344 122.26427 15026 ft 322 kts 158°
2026-05-06 22:31 30.94246 122.27303 15036 ft 317 kts 168°
2026-05-06 22:31 30.92105 122.28014 15149 ft 325 kts 168°
2026-05-06 22:31 30.89884 122.28766 15398 ft 340 kts 167°
2026-05-06 22:31 30.87562 122.29577 15661 ft 355 kts 167°
2026-05-06 22:32 30.85173 122.30434 16104 ft 362 kts 167°
2026-05-06 22:32 30.82767 122.31311 16656 ft 365 kts 167°
2026-05-06 22:32 30.80340 122.32198 17201 ft 368 kts 167°
2026-05-06 22:32 30.77876 122.33100 17720 ft 371 kts 167°
2026-05-06 22:33 30.75403 122.34006 18231 ft 374 kts 167°
2026-05-06 22:33 30.72913 122.34920 18733 ft 378 kts 167°
2026-05-06 22:33 30.70415 122.35835 19231 ft 381 kts 167°
2026-05-06 22:33 30.67862 122.36771 19743 ft 384 kts 167°
2026-05-06 22:34 30.65315 122.37703 20248 ft 387 kts 167°
2026-05-06 22:34 30.62729 122.38648 20748 ft 390 kts 167°
2026-05-06 22:34 30.60108 122.39468 21232 ft 390 kts 173°
2026-05-06 22:34 30.57421 122.39888 21723 ft 389 kts 181°
2026-05-06 22:35 30.54755 122.39906 22226 ft 388 kts 187°
2026-05-06 22:35 30.52190 122.39766 22699 ft 390 kts 188°
2026-05-06 22:35 30.49415 122.39589 23171 ft 394 kts 188°
2026-05-06 22:35 30.46638 122.39413 23647 ft 397 kts 188°
2026-05-06 22:36 30.43907 122.39246 24121 ft 399 kts 188°
2026-05-06 22:36 30.41088 122.39078 24603 ft 402 kts 188°
2026-05-06 22:36 30.38308 122.38914 25057 ft 405 kts 188°
2026-05-06 22:36 30.35456 122.38747 25500 ft 409 kts 188°
2026-05-06 22:37 30.32641 122.38584 25922 ft 412 kts 188°
2026-05-06 22:37 30.29767 122.38418 26340 ft 415 kts 188°
2026-05-06 22:37 30.26836 122.38250 26765 ft 418 kts 188°
2026-05-06 22:37 30.23960 122.38084 27169 ft 421 kts 188°
2026-05-06 22:38 30.21012 122.37916 27556 ft 423 kts 188°
2026-05-06 22:38 30.18070 122.37747 27933 ft 426 kts 188°
2026-05-06 22:38 30.15095 122.37576 28300 ft 428 kts 188°
2026-05-06 22:38 30.12099 122.37405 28647 ft 431 kts 188°
2026-05-06 22:39 30.09128 122.37235 28971 ft 433 kts 188°
2026-05-06 22:39 30.06106 122.37063 29295 ft 435 kts 188°
2026-05-06 22:39 30.03073 122.36890 29655 ft 437 kts 188°
2026-05-06 22:39 30.00020 122.36716 30088 ft 436 kts 188°
2026-05-06 22:40 29.96988 122.36621 30565 ft 436 kts 186°
2026-05-06 22:40 29.93983 122.36716 30995 ft 437 kts 182°
2026-05-06 22:40 29.90948 122.37019 31377 ft 439 kts 179°
2026-05-06 22:40 29.87922 122.37530 31749 ft 441 kts 176°
2026-05-06 22:41 29.81906 122.38921 32457 ft 441 kts 175°
2026-05-06 22:41 29.78890 122.39633 32811 ft 440 kts 175°
2026-05-06 22:41 29.75911 122.40335 33144 ft 439 kts 175°
2026-05-06 22:42 29.72925 122.41034 33466 ft 439 kts 175°
2026-05-06 22:42 29.69926 122.41734 33806 ft 439 kts 175°
2026-05-06 22:42 29.66906 122.42439 34115 ft 438 kts 175°
2026-05-06 22:42 29.63927 122.43133 34404 ft 438 kts 175°
2026-05-06 22:43 29.60951 122.43825 34642 ft 440 kts 175°
2026-05-06 22:43 29.57923 122.44527 34890 ft 440 kts 175°
2026-05-06 22:43 29.54922 122.45223 35096 ft 442 kts 175°
2026-05-06 22:43 29.51914 122.45923 35327 ft 442 kts 175°
2026-05-06 22:44 29.48899 122.46623 35553 ft 443 kts 175°
2026-05-06 22:44 29.45858 122.47328 35735 ft 444 kts 175°
2026-05-06 22:44 29.42821 122.48032 35916 ft 446 kts 175°
2026-05-06 22:44 29.39807 122.48732 36040 ft 448 kts 175°
2026-05-06 22:45 29.36727 122.49447 36042 ft 450 kts 175°
2026-05-06 22:45 29.30572 122.50873 36045 ft 452 kts 175°
2026-05-06 22:46 29.24430 122.51820 36041 ft 442 kts 186°
2026-05-06 22:46 29.18383 122.51185 36045 ft 430 kts 199°
2026-05-06 22:47 29.12806 122.49083 36041 ft 419 kts 211°
2026-05-06 22:47 29.07609 122.46064 36045 ft 417 kts 214°
2026-05-06 22:48 29.02461 122.43005 36049 ft 417 kts 214°
2026-05-06 22:48 28.97392 122.40010 36046 ft 418 kts 213°
2026-05-06 22:49 28.92207 122.36958 36048 ft 419 kts 214°
2026-05-06 22:49 28.87031 122.33919 36049 ft 418 kts 214°
2026-05-06 22:50 28.81887 122.30902 36051 ft 418 kts 214°
2026-05-06 22:50 28.76689 122.27856 36049 ft 418 kts 214°
2026-05-06 22:51 28.71521 122.24833 36048 ft 418 kts 213°
2026-05-06 22:51 28.66349 122.21809 36053 ft 419 kts 214°
2026-05-06 22:52 28.61173 122.18789 36056 ft 419 kts 214°
2026-05-06 22:52 28.55990 122.15767 36058 ft 420 kts 214°
2026-05-06 22:53 28.50802 122.12746 36059 ft 421 kts 214°
2026-05-06 22:53 28.45576 122.09705 36061 ft 420 kts 214°
2026-05-06 22:54 28.40372 122.06681 36060 ft 420 kts 214°
2026-05-06 22:54 28.35182 122.03670 36057 ft 421 kts 214°
2026-05-06 22:55 28.29968 122.00645 36059 ft 421 kts 214°
2026-05-06 22:55 28.24733 121.97614 36060 ft 422 kts 214°
2026-05-06 22:56 28.19534 121.94605 36058 ft 421 kts 214°
2026-05-06 22:56 28.14311 121.91587 36059 ft 422 kts 214°
2026-05-06 22:57 28.09056 121.88553 36059 ft 422 kts 214°
2026-05-06 22:57 28.03842 121.85548 36061 ft 423 kts 213°
2026-05-06 22:58 27.98590 121.82497 36057 ft 421 kts 215°
2026-05-06 22:58 27.93478 121.79326 36058 ft 422 kts 216°
2026-05-06 22:59 27.88325 121.76117 36058 ft 423 kts 216°
2026-05-06 22:59 27.83164 121.72918 36059 ft 423 kts 215°
2026-05-06 23:00 27.78014 121.69736 36058 ft 424 kts 215°
2026-05-06 23:00 27.72800 121.66523 36057 ft 424 kts 215°
2026-05-06 23:01 27.67649 121.63351 36056 ft 423 kts 215°
2026-05-06 23:01 27.62474 121.60166 36058 ft 424 kts 215°
2026-05-06 23:02 27.57283 121.56978 36054 ft 425 kts 215°
2026-05-06 23:02 27.52107 121.53813 36049 ft 424 kts 215°
2026-05-06 23:03 27.46888 121.50629 36049 ft 425 kts 215°
2026-05-06 23:03 27.41695 121.47462 36049 ft 426 kts 215°
2026-05-06 23:04 27.36483 121.44288 36049 ft 426 kts 215°
2026-05-06 23:04 27.31272 121.41118 36050 ft 426 kts 215°
2026-05-06 23:05 27.26051 121.37945 36048 ft 426 kts 215°
2026-05-06 23:05 27.20857 121.34790 36051 ft 427 kts 214°
2026-05-06 23:06 27.15640 121.31624 36049 ft 427 kts 214°
2026-05-06 23:06 27.10389 121.28441 36047 ft 428 kts 214°
2026-05-06 23:07 27.05132 121.25259 36048 ft 428 kts 214°
2026-05-06 23:07 26.99929 121.22113 36051 ft 428 kts 214°
2026-05-06 23:08 26.94669 121.18935 36055 ft 428 kts 214°
2026-05-06 23:08 26.89436 121.15777 36047 ft 428 kts 214°
2026-05-06 23:09 26.84216 121.12631 36039 ft 428 kts 214°
2026-05-06 23:09 26.78953 121.09462 36039 ft 429 kts 214°
2026-05-06 23:10 26.73679 121.06288 36036 ft 429 kts 214°
2026-05-06 23:10 26.68430 121.03127 36038 ft 429 kts 214°
2026-05-06 23:11 26.63170 120.99957 36037 ft 429 kts 214°
2026-05-06 23:11 26.57937 120.96812 36043 ft 428 kts 214°
2026-05-06 23:12 26.52688 120.93659 36042 ft 429 kts 214°
2026-05-06 23:12 26.47423 120.90499 36044 ft 429 kts 214°
2026-05-06 23:13 26.42167 120.87350 36047 ft 430 kts 213°
2026-05-06 23:13 26.36886 120.84189 36049 ft 430 kts 213°
2026-05-06 23:14 26.31624 120.81041 36048 ft 430 kts 213°
2026-05-06 23:14 26.26364 120.77898 36051 ft 430 kts 213°
2026-05-06 23:15 26.21088 120.74750 36056 ft 430 kts 213°
2026-05-06 23:15 26.15825 120.71613 36057 ft 430 kts 213°
2026-05-06 23:16 26.10545 120.68468 36057 ft 430 kts 213°
2026-05-06 23:16 26.05290 120.65342 36060 ft 430 kts 213°
2026-05-06 23:17 25.99978 120.62184 36061 ft 431 kts 213°
2026-05-06 23:17 25.94707 120.59054 36060 ft 430 kts 213°
2026-05-06 23:18 25.89434 120.55926 36060 ft 430 kts 213°
2026-05-06 23:18 25.84149 120.52794 36059 ft 431 kts 213°
2026-05-06 23:19 25.78844 120.49654 36058 ft 431 kts 213°
2026-05-06 23:19 25.73544 120.46520 36059 ft 432 kts 213°
2026-05-06 23:20 25.68279 120.43411 36060 ft 432 kts 213°
2026-05-06 23:20 25.63026 120.40163 36060 ft 429 kts 217°
2026-05-06 23:21 25.58151 120.36397 36061 ft 426 kts 222°
2026-05-06 23:21 25.53430 120.32464 36061 ft 426 kts 221°
2026-05-06 23:22 25.48704 120.28532 36061 ft 426 kts 221°
2026-05-06 23:22 25.43936 120.24572 36060 ft 426 kts 221°
2026-05-06 23:23 25.39201 120.20644 36060 ft 426 kts 222°
2026-05-06 23:23 25.34458 120.16714 36060 ft 426 kts 221°
2026-05-06 23:24 25.29710 120.12782 36060 ft 427 kts 221°
2026-05-06 23:24 25.24994 120.08883 36060 ft 427 kts 221°
2026-05-06 23:25 25.20226 120.04945 36059 ft 426 kts 221°
2026-05-06 23:25 25.15493 120.01038 36060 ft 426 kts 221°
2026-05-06 23:26 25.10780 119.97154 36059 ft 426 kts 221°
2026-05-06 23:26 25.06042 119.93251 36059 ft 426 kts 221°
2026-05-06 23:27 25.01394 119.89198 36060 ft 424 kts 226°
2026-05-06 23:27 24.97199 119.84662 36059 ft 421 kts 232°
2026-05-06 23:28 24.93379 119.79798 36060 ft 420 kts 234°
2026-05-06 23:28 24.89585 119.74926 36059 ft 420 kts 234°
2026-05-06 23:29 24.85812 119.70089 36061 ft 419 kts 234°
2026-05-06 23:29 24.82011 119.65222 36059 ft 419 kts 234°
2026-05-06 23:30 24.78200 119.60350 36060 ft 419 kts 234°
2026-05-06 23:30 24.74397 119.55495 36059 ft 420 kts 234°
2026-05-06 23:31 24.70588 119.50634 36058 ft 420 kts 234°
2026-05-06 23:31 24.66790 119.45792 36060 ft 420 kts 234°
2026-05-06 23:32 24.62990 119.40954 36059 ft 420 kts 234°
2026-05-06 23:32 24.59171 119.36097 36060 ft 419 kts 234°
2026-05-06 23:33 24.55355 119.31248 36058 ft 420 kts 233°
2026-05-06 23:33 24.51536 119.26402 36057 ft 420 kts 233°
2026-05-06 23:34 24.47724 119.21567 36057 ft 420 kts 233°
2026-05-06 23:34 24.43889 119.16708 36058 ft 420 kts 233°
2026-05-06 23:35 24.40067 119.11869 36058 ft 420 kts 233°
2026-05-06 23:35 24.36258 119.07054 36059 ft 420 kts 233°
2026-05-06 23:36 24.32433 119.02226 36060 ft 420 kts 233°
2026-05-06 23:36 24.28599 118.97388 36060 ft 420 kts 233°
2026-05-06 23:37 24.24779 118.92575 36059 ft 420 kts 233°
2026-05-06 23:37 24.20934 118.87731 36061 ft 420 kts 233°
2026-05-06 23:38 24.17104 118.82913 36060 ft 420 kts 233°
2026-05-06 23:38 24.13280 118.78108 36061 ft 419 kts 233°
2026-05-06 23:39 24.09464 118.73319 36065 ft 419 kts 233°
2026-05-06 23:39 24.05617 118.68491 36070 ft 420 kts 233°
2026-05-06 23:40 24.01808 118.63719 36076 ft 419 kts 233°
2026-05-06 23:40 23.97973 118.58920 36080 ft 419 kts 233°
2026-05-06 23:41 23.94134 118.54119 36078 ft 419 kts 233°
2026-05-06 23:41 23.90286 118.49312 36077 ft 419 kts 233°
2026-05-06 23:42 23.86461 118.44537 36077 ft 420 kts 233°
2026-05-06 23:42 23.82596 118.39760 36074 ft 420 kts 233°
2026-05-06 23:43 23.78715 118.34986 36077 ft 420 kts 232°
2026-05-06 23:43 23.74859 118.30241 36072 ft 420 kts 232°
2026-05-06 23:44 23.70990 118.25485 36076 ft 420 kts 232°
2026-05-06 23:44 23.67094 118.20698 36072 ft 420 kts 232°
2026-05-06 23:45 23.63230 118.15957 36068 ft 419 kts 233°
2026-05-06 23:45 23.59353 118.11202 36069 ft 420 kts 232°
2026-05-06 23:46 23.55482 118.06458 36069 ft 420 kts 232°
2026-05-06 23:46 23.51606 118.01715 36069 ft 420 kts 232°
2026-05-06 23:47 23.47706 117.96948 36069 ft 420 kts 232°
2026-05-06 23:47 23.43824 117.92206 36070 ft 421 kts 232°
2026-05-06 23:48 23.39945 117.87472 36068 ft 421 kts 232°
2026-05-06 23:48 23.36048 117.82722 36065 ft 421 kts 232°
2026-05-06 23:49 23.32140 117.77961 36066 ft 421 kts 232°
2026-05-06 23:49 23.28226 117.73198 36065 ft 421 kts 232°
2026-05-06 23:50 23.24342 117.68478 36065 ft 422 kts 232°
2026-05-06 23:50 23.18480 117.61357 36066 ft 422 kts 232°
2026-05-06 23:51 23.14543 117.56583 36061 ft 422 kts 232°
2026-05-06 23:51 23.10629 117.51841 36062 ft 422 kts 232°
2026-05-06 23:52 23.06753 117.47101 36061 ft 421 kts 233°
2026-05-06 23:52 23.02945 117.42364 36058 ft 422 kts 233°
2026-05-06 23:53 22.99095 117.37593 36060 ft 422 kts 233°
2026-05-06 23:53 22.95232 117.32799 36062 ft 422 kts 233°
2026-05-06 23:54 22.91660 117.27818 36061 ft 419 kts 238°
2026-05-06 23:54 22.88229 117.22711 36059 ft 420 kts 238°
2026-05-06 23:55 22.84779 117.17580 36061 ft 419 kts 238°
2026-05-06 23:55 22.81346 117.12482 36060 ft 420 kts 238°
2026-05-06 23:56 22.79631 117.09937 35853 ft 419 kts 238°
2026-05-06 23:56 22.77928 117.07412 35572 ft 417 kts 238°
2026-05-06 23:56 22.76298 117.04856 35295 ft 413 kts 240°
2026-05-06 23:56 22.74782 117.02208 35015 ft 409 kts 243°
2026-05-06 23:57 22.73412 116.99519 34734 ft 407 kts 246°
2026-05-06 23:57 22.72175 116.96776 34459 ft 407 kts 249°
2026-05-06 23:57 22.71065 116.93973 34182 ft 407 kts 251°
2026-05-06 23:57 22.70028 116.91151 33908 ft 408 kts 251°
2026-05-06 23:58 22.68978 116.88289 33629 ft 409 kts 251°
2026-05-06 23:58 22.67924 116.85420 33353 ft 411 kts 251°
2026-05-06 23:58 22.66863 116.82536 33077 ft 412 kts 251°
2026-05-06 23:58 22.65812 116.79684 32805 ft 413 kts 251°
2026-05-06 23:59 22.64742 116.76779 32550 ft 414 kts 251°
2026-05-06 23:59 22.63681 116.73899 32298 ft 416 kts 251°
2026-05-06 23:59 22.62598 116.70966 32044 ft 416 kts 251°
2026-05-06 23:59 22.61532 116.68079 31793 ft 417 kts 251°
2026-05-07 00:00 22.60448 116.65146 31539 ft 418 kts 251°
2026-05-07 00:00 22.59379 116.62255 31288 ft 419 kts 251°
2026-05-07 00:00 22.58297 116.59328 31035 ft 420 kts 251°
2026-05-07 00:00 22.57205 116.56380 30783 ft 421 kts 251°
2026-05-07 00:01 22.56119 116.53447 30533 ft 422 kts 251°
2026-05-07 00:01 22.55034 116.50520 30283 ft 423 kts 251°
2026-05-07 00:01 22.53930 116.47546 30030 ft 423 kts 251°
2026-05-07 00:01 22.52837 116.44601 29780 ft 425 kts 251°
2026-05-07 00:02 22.51740 116.41649 29531 ft 426 kts 251°
2026-05-07 00:02 22.50645 116.38702 29282 ft 426 kts 251°
2026-05-07 00:02 22.49546 116.35748 29033 ft 424 kts 251°
2026-05-07 00:02 22.48453 116.32813 28786 ft 421 kts 250°
2026-05-07 00:03 22.47357 116.29874 28532 ft 419 kts 250°
2026-05-07 00:03 22.46276 116.26973 28280 ft 418 kts 250°
2026-05-07 00:03 22.45181 116.24038 28023 ft 416 kts 250°
2026-05-07 00:03 22.44105 116.21156 27771 ft 414 kts 250°
2026-05-07 00:04 22.43030 116.18276 27517 ft 412 kts 250°
2026-05-07 00:04 22.41967 116.15433 27267 ft 411 kts 250°
2026-05-07 00:04 22.40898 116.12573 27014 ft 409 kts 250°
2026-05-07 00:04 22.39836 116.09735 26761 ft 407 kts 250°
2026-05-07 00:05 22.38779 116.06911 26509 ft 405 kts 250°
2026-05-07 00:05 22.37726 116.04099 26260 ft 404 kts 250°
2026-05-07 00:05 22.36678 116.01304 26006 ft 402 kts 250°
2026-05-07 00:05 22.35631 115.98512 25755 ft 400 kts 250°
2026-05-07 00:06 22.34587 115.95732 25503 ft 399 kts 250°
2026-05-07 00:06 22.33556 115.92988 25255 ft 398 kts 250°
2026-05-07 00:06 22.32522 115.90235 25003 ft 396 kts 250°
2026-05-07 00:06 22.31492 115.87498 24752 ft 395 kts 250°
2026-05-07 00:07 22.30555 115.84709 24502 ft 393 kts 255°
2026-05-07 00:07 22.29909 115.81870 24250 ft 391 kts 261°
2026-05-07 00:07 22.29550 115.78972 24001 ft 389 kts 266°
2026-05-07 00:07 22.29426 115.76070 23753 ft 387 kts 269°
2026-05-07 00:08 22.29355 115.73178 23509 ft 387 kts 269°
2026-05-07 00:08 22.29288 115.70261 23262 ft 386 kts 269°
2026-05-07 00:08 22.29218 115.67399 23023 ft 385 kts 269°
2026-05-07 00:08 22.29145 115.64526 22781 ft 383 kts 269°
2026-05-07 00:09 22.29068 115.61643 22536 ft 382 kts 269°
2026-05-07 00:09 22.28991 115.58793 22296 ft 380 kts 269°
2026-05-07 00:09 22.28912 115.55959 22069 ft 379 kts 269°
2026-05-07 00:09 22.28834 115.53146 21841 ft 378 kts 269°
2026-05-07 00:10 22.28755 115.50325 21614 ft 377 kts 269°
2026-05-07 00:10 22.28675 115.47498 21384 ft 375 kts 269°
2026-05-07 00:10 22.28596 115.44705 21155 ft 374 kts 269°
2026-05-07 00:10 22.28515 115.41889 20924 ft 373 kts 269°
2026-05-07 00:11 22.28435 115.39123 20697 ft 372 kts 269°
2026-05-07 00:11 22.28354 115.36321 20462 ft 371 kts 269°
2026-05-07 00:11 22.28274 115.33572 20223 ft 370 kts 268°
2026-05-07 00:11 22.28193 115.30807 19944 ft 369 kts 268°
2026-05-07 00:12 22.28111 115.28046 19562 ft 366 kts 268°
2026-05-07 00:12 22.28028 115.25310 19131 ft 364 kts 268°
2026-05-07 00:12 22.27945 115.22580 18677 ft 363 kts 268°
2026-05-07 00:12 22.27863 115.19905 18221 ft 361 kts 268°
2026-05-07 00:13 22.27777 115.17174 17758 ft 359 kts 268°
2026-05-07 00:13 22.27694 115.14520 17305 ft 358 kts 268°
2026-05-07 00:13 22.27609 115.11840 16847 ft 356 kts 268°
2026-05-07 00:13 22.27524 115.09190 16390 ft 354 kts 268°
2026-05-07 00:14 22.27440 115.06559 15944 ft 352 kts 268°
2026-05-07 00:14 22.27355 115.03938 15493 ft 350 kts 268°
2026-05-07 00:14 22.27270 115.01300 15033 ft 348 kts 268°
2026-05-07 00:14 22.27186 114.98733 14587 ft 346 kts 268°
2026-05-07 00:15 22.27102 114.96139 14136 ft 343 kts 268°
2026-05-07 00:15 22.27019 114.93578 13704 ft 341 kts 268°
2026-05-07 00:15 22.26936 114.91042 13254 ft 339 kts 268°
2026-05-07 00:15 22.26853 114.88515 12801 ft 337 kts 268°
2026-05-07 00:16 22.26770 114.85993 12350 ft 336 kts 268°
2026-05-07 00:16 22.26687 114.83485 11903 ft 334 kts 268°
2026-05-07 00:16 22.26604 114.80989 11457 ft 332 kts 267°
2026-05-07 00:16 22.26211 114.78594 11054 ft 327 kts 248°
2026-05-07 00:17 22.25015 114.76537 10962 ft 325 kts 228°
2026-05-07 00:17 22.23378 114.74821 10969 ft 326 kts 224°
2026-05-07 00:17 22.21717 114.73142 10963 ft 326 kts 224°
2026-05-07 00:17 22.20082 114.71486 10963 ft 326 kts 225°
2026-05-07 00:18 22.18426 114.69801 10967 ft 326 kts 225°
2026-05-07 00:18 22.16778 114.68115 10977 ft 327 kts 225°
2026-05-07 00:18 22.15118 114.66414 10982 ft 327 kts 225°
2026-05-07 00:18 22.13471 114.64725 10977 ft 326 kts 225°
2026-05-07 00:19 22.11825 114.63036 10704 ft 328 kts 225°
2026-05-07 00:19 22.10178 114.61346 10373 ft 322 kts 225°
2026-05-07 00:19 22.08597 114.59724 10173 ft 311 kts 225°
2026-05-07 00:19 22.07053 114.58142 10057 ft 299 kts 225°
2026-05-07 00:20 22.05565 114.56617 9831 ft 291 kts 224°
2026-05-07 00:20 22.04113 114.55128 9460 ft 289 kts 224°
2026-05-07 00:20 22.02717 114.53567 9084 ft 287 kts 233°
2026-05-07 00:20 22.01686 114.51746 8892 ft 280 kts 245°
2026-05-07 00:21 22.00922 114.49821 8917 ft 283 kts 248°
2026-05-07 00:21 22.00180 114.47849 8942 ft 283 kts 248°
2026-05-07 00:21 21.99439 114.45882 8967 ft 283 kts 248°
2026-05-07 00:21 21.98698 114.43921 8985 ft 283 kts 248°
2026-05-07 00:22 21.97950 114.41956 8991 ft 283 kts 248°
2026-05-07 00:22 21.97208 114.40009 8996 ft 283 kts 248°
2026-05-07 00:22 21.96460 114.38050 8997 ft 283 kts 248°
2026-05-07 00:22 21.95708 114.36086 8999 ft 283 kts 248°
2026-05-07 00:23 21.94959 114.34133 8999 ft 283 kts 247°
2026-05-07 00:23 21.94208 114.32175 8998 ft 283 kts 247°
2026-05-07 00:23 21.93448 114.30193 8998 ft 283 kts 247°
2026-05-07 00:23 21.92700 114.28247 8998 ft 283 kts 247°
2026-05-07 00:24 21.91949 114.26293 8997 ft 283 kts 247°
2026-05-07 00:24 21.91199 114.24342 8996 ft 283 kts 247°
2026-05-07 00:24 21.90447 114.22388 8996 ft 283 kts 247°
2026-05-07 00:24 21.89772 114.20403 8987 ft 283 kts 259°
2026-05-07 00:25 21.89821 114.18282 8989 ft 285 kts 284°
2026-05-07 00:25 21.90637 114.16352 9000 ft 287 kts 298°
2026-05-07 00:25 21.91635 114.14486 8996 ft 286 kts 298°
2026-05-07 00:25 21.92616 114.12647 8894 ft 281 kts 298°
2026-05-07 00:26 21.93575 114.10829 8496 ft 282 kts 298°
2026-05-07 00:26 21.94543 114.08977 8083 ft 282 kts 297°
2026-05-07 00:26 21.95496 114.07145 7702 ft 281 kts 297°
2026-05-07 00:26 21.96449 114.05306 7312 ft 281 kts 297°
2026-05-07 00:27 21.97402 114.03464 6922 ft 280 kts 297°
2026-05-07 00:27 21.98344 114.01640 6544 ft 280 kts 297°
2026-05-07 00:27 21.99291 113.99805 6171 ft 278 kts 297°
2026-05-07 00:27 22.00226 113.97991 5805 ft 277 kts 297°
2026-05-07 00:28 22.01152 113.96193 5444 ft 276 kts 297°
2026-05-07 00:28 22.02082 113.94387 5065 ft 275 kts 297°
2026-05-07 00:28 22.03013 113.92578 4688 ft 275 kts 297°
2026-05-07 00:28 22.03935 113.90788 4500 ft 273 kts 298°
2026-05-07 00:29 22.04858 113.88992 4499 ft 275 kts 297°
2026-05-07 00:29 22.05786 113.87189 4493 ft 275 kts 298°
2026-05-07 00:30 22.08564 113.81785 4488 ft 275 kts 298°
2026-05-07 00:30 22.09496 113.79972 4489 ft 275 kts 298°
2026-05-07 00:30 22.10483 113.78204 4485 ft 276 kts 308°
2026-05-07 00:30 22.11940 113.76879 4351 ft 272 kts 331°
2026-05-07 00:31 22.13625 113.76015 4025 ft 264 kts 336°
2026-05-07 00:31 22.15299 113.75228 3737 ft 260 kts 336°
2026-05-07 00:31 22.16928 113.74455 3437 ft 253 kts 336°
2026-05-07 00:31 22.18501 113.73689 3240 ft 244 kts 336°
2026-05-07 00:32 22.20002 113.72948 3051 ft 229 kts 336°
2026-05-07 00:32 22.21450 113.72340 2851 ft 220 kts 354°
2026-05-07 00:32 22.22902 113.72639 2632 ft 208 kts 36°
2026-05-07 00:32 22.24004 113.73598 2443 ft 199 kts 44°
2026-05-07 00:33 22.25033 113.74563 2141 ft 196 kts 42°
2026-05-07 00:33 22.26080 113.75448 1993 ft 179 kts 40°
2026-05-07 00:33 22.26868 113.76354 1943 ft 155 kts 69°
2026-05-07 00:33 22.27183 113.77410 1985 ft 148 kts 76°
2026-05-07 00:34 22.27482 113.78477 1998 ft 143 kts 75°
2026-05-07 00:34 22.27775 113.79460 1943 ft 136 kts 74°
2026-05-07 00:34 22.28074 113.80420 1773 ft 134 kts 73°
2026-05-07 00:34 22.28377 113.81368 1600 ft 133 kts 73°
2026-05-07 00:35 22.28683 113.82320 1436 ft 133 kts 73°
2026-05-07 00:35 22.28983 113.83247 1268 ft 132 kts 73°
2026-05-07 00:35 22.29286 113.84186 1099 ft 131 kts 73°
2026-05-07 00:35 22.29584 113.85111 932 ft 131 kts 73°
2026-05-07 00:36 22.29883 113.86037 764 ft 131 kts 73°
2026-05-07 00:36 22.30180 113.86958 597 ft 130 kts 73°
2026-05-07 00:36 22.30477 113.87888 430 ft 130 kts 73°
2026-05-07 00:36 22.30773 113.88808 264 ft 130 kts 72°
2026-05-07 00:37 22.31071 113.89724 102 ft 129 kts 72°
2026-05-07 00:37 22.31355 113.90617 36 ft 115 kts 72°
2026-05-07 00:37 22.31564 113.91261 35 ft 66 kts 72°
2026-05-07 00:37 22.31654 113.91570 36 ft 28 kts 82°
2026-05-07 00:38 22.31642 113.91772 35 ft 25 kts 103°
2026-05-07 00:38 22.31611 113.91949 36 ft 20 kts 86°
2026-05-07 00:38 22.31579 113.92046 35 ft 12 kts 137°
2026-05-07 00:38 22.31560 113.92120 35 ft 11 kts 64°
2026-05-07 00:39 22.31594 113.92207 35 ft 14 kts 69°
2026-05-07 00:39 22.31634 113.92334 35 ft 20 kts 72°
2026-05-07 00:39 22.31686 113.92501 35 ft 25 kts 70°
2026-05-07 00:39 22.31745 113.92684 35 ft 27 kts 70°
2026-05-07 00:40 22.31775 113.92836 36 ft 17 kts 119°
2026-05-07 00:40 22.31694 113.92890 36 ft 8 kts 118°
2026-05-07 00:40 22.31699 113.92941 36 ft 6 kts 80°
2026-05-07 00:40 22.31701 113.92960 35 ft 0 kts 82°